FW3986 Weather Reports


Display with metric or nautical units.
time (UTC)temp
F
wind
direction
speed
MPH
gust
MPH
rain 1hr
in
rain 24hr
in
rain mn
in
humidity
%
barometer
mb
20200402194645 26 94 3.0 8.0 0.02 0.02 0.02 64 1025.1
20200402193053 24 88 6.0 10.0 0.01 0.01 0.01 64 1025.2
20200402191523 24 109 4.0 9.0 0.00 0.00 0.00 66 1025.3
20200402184512 23 88 4.0 9.0 0.00 0.00 0.00 70 1025.6
20200402183020 21 82 6.0 10.0 0.00 0.00 0.00 70 1025.7
20200402181645 20 71 3.0 9.0 0.00 0.00 0.00 73 1025.7
20200402174537 20 88 6.0 10.0 0.00 0.00 0.00 70 1025.9
20200402173004 18 86 5.0 11.0 0.00 0.00 0.00 74 1025.8
20200402171631 17 79 5.0 10.0 0.00 0.00 0.00 74 1025.8
20200402164527 17 84 5.0 9.0 0.00 0.00 0.00 74 1025.7
20200402163011 17 88 2.0 9.0 0.00 0.00 0.00 76 1025.6
20200402161502 16 96 4.0 10.0 0.00 0.00 0.00 75 1025.6
20200402154504 15 89 4.0 10.0 0.00 0.00 0.00 79 1025.6
20200402153313 14 94 4.0 9.0 0.00 0.00 0.00 80 1025.4
20200402151644 13 95 4.0 9.0 0.00 0.00 0.00 81 1025.5
20200402144628 11 81 4.0 8.0 0.00 0.00 0.00 83 1025.3
20200402143044 11 117 6.0 11.0 0.00 0.00 0.00 81 1025.2
20200402141638 11 78 6.0 10.0 0.00 0.00 0.00 82 1025.0
20200402134539 10 101 4.0 9.0 0.00 0.00 0.00 84 1024.9
20200402133121 10 121 5.0 9.0 0.00 0.00 0.00 84 1024.7
20200402131609 10 123 3.0 8.0 0.00 0.00 0.00 85 1024.6
20200402124519 10 111 5.0 9.0 0.00 0.00 0.00 84 1024.2
20200402123026 10 106 6.0 10.0 0.00 0.00 0.00 84 1023.8
20200402121510 10 119 6.0 11.0 0.00 0.00 0.00 84 1023.8
20200402114617 10 109 5.0 12.0 0.00 0.00 0.00 84 1023.4
20200402113117 10 105 6.0 12.0 0.00 0.00 0.00 84 1023.0
20200402111613 10 113 5.0 14.0 0.00 0.00 0.00 84 1022.7
20200402104608 11 105 4.0 11.0 0.00 0.00 0.00 83 1022.4
20200402103124 11 94 6.0 13.0 0.00 0.00 0.00 85 1022.0
20200402101643 11 61 7.0 12.0 0.00 0.00 0.00 84 1021.9
20200402094542 12 84 5.0 13.0 0.00 0.00 0.00 85 1021.1
20200402093133 12 113 7.0 13.0 0.00 0.00 0.00 85 1020.7
20200402091622 13 105 6.0 14.0 0.00 0.00 0.00 86 1020.6
20200402084531 13 86 5.0 11.0 0.00 0.00 0.00 87 1020.5
20200402083108 13 94 6.0 10.0 0.00 0.00 0.00 87 1019.9
20200402081607 14 120 7.0 13.0 0.00 0.00 0.00 87 1020.1
20200402074546 14 86 7.0 13.0 0.00 0.01 0.00 86 1020.0
20200402073038 14 95 7.0 12.0 0.00 0.01 0.00 86 1020.0
20200402071549 15 105 8.0 14.0 0.00 0.01 0.00 85 1019.7
20200402064511 15 93 7.0 13.0 0.00 0.02 0.01 83 1019.1
20200402063029 15 88 6.0 14.0 0.00 0.02 0.01 83 1019.0
20200402061507 16 92 9.0 13.0 0.00 0.02 0.01 83 1019.1
20200402054518 16 99 4.0 15.0 0.00 0.03 0.01 82 1019.1
20200402053006 16 81 4.0 12.0 0.00 0.03 0.01 82 1018.2
20200402051502 17 89 7.0 15.0 0.00 0.03 0.01 81 1017.8
20200402044935 17 128 6.0 13.0 0.00 0.10 0.01 80 1017.7
20200402043200 17 89 6.0 11.0 0.00 0.10 0.01 80 1018.4
20200402041649 18 95 5.0 12.0 0.00 0.10 0.01 79 1018.4
20200402034636 18 111 4.0 13.0 0.00 0.21 0.01 79 1018.3
20200402033201 18 97 6.0 12.0 0.00 0.21 0.01 79 1018.0
20200402031611 18 87 5.0 12.0 0.00 0.21 0.01 78 1017.2
20200402030131 19 94 6.0 12.0 0.00 0.34 0.01 78 1017.2
20200402024628 19 85 4.0 10.0 0.00 0.34 0.01 78 1016.8
20200402023131 19 104 6.0 11.0 0.00 0.34 0.01 78 1017.2
20200402021621 19 82 7.0 12.0 0.00 0.34 0.01 78 1016.6
20200402014633 19 103 5.0 13.0 0.00 0.39 0.01 78 1016.3
20200402013110 20 92 6.0 13.0 0.00 0.39 0.01 78 1016.3
20200402011546 20 121 7.0 15.0 0.00 0.39 0.01 77 1015.4
20200402004626 21 115 6.0 15.0 0.00 0.39 0.01 78 1015.7
20200402003039 21 98 6.0 14.0 0.00 0.39 0.01 77 1015.6
20200402001526 22 94 7.0 15.0 0.00 0.39 0.01 76 1015.0
20200402000200 22 61 6.0 13.0 0.00 0.39 0.01 79 1014.8
20200401234520 22 83 7.0 14.0 0.00 0.39 0.01 80 1014.6
20200401233047 23 84 8.0 15.0 0.00 0.39 0.01 81 1014.4
20200401231604 23 90 8.0 13.0 0.00 0.39 0.01 82 1014.4
20200401224516 23 84 4.0 13.0 0.00 0.39 0.01 83 1013.7
20200401223017 23 76 7.0 14.0 0.00 0.39 0.01 81 1013.8
20200401221541 24 88 8.0 14.0 0.00 0.39 0.01 83 1013.7
20200401214511 24 83 8.0 13.0 0.00 0.39 0.01 84 1013.1
20200401213029 24 67 7.0 15.0 0.00 0.39 0.01 84 1013.2
20200401211515 24 93 8.0 15.0 0.00 0.39 0.01 81 1013.0
20200401204512 25 83 4.0 10.0 0.00 0.39 0.01 76 1012.8
20200401203003 26 69 5.0 14.0 0.00 0.39 0.01 76 1012.6
20200401201516 27 95 4.0 13.0 0.00 0.39 0.01 74 1012.8